Location: General Nathan Twining Observatory
(34.5931°N, 106.8201°W)
Time: 12:12:10
(UTC-07:00)

ADEOS II - Visible Passes

Search period start: 19 February 2017 00:00
Search period end: 01 March 2017 00:00
Orbit: 800 x 801 km, 98.4° (Epoch: 18 February)

Date Brightness Start Highest point End Pass type
(mag) Time Alt. Az. Time Alt. Az. Time Alt. Az.
19 Feb 4.6 03:38:06 10° NNE 03:38:59 15° NNE 03:38:59 15° NNE visible
19 Feb 4.0 05:18:52 10° NNW 05:19:57 14° NNW 05:19:57 14° NNW visible
20 Feb 5.0 03:12:22 10° NE 03:12:26 10° NE 03:12:26 10° NE visible
20 Feb 3.8 04:51:40 10° N 04:53:25 19° NNW 04:53:25 19° NNW visible
21 Feb 3.7 04:24:56 10° N 04:26:52 23° N 04:26:52 23° N visible
22 Feb 4.0 03:58:30 10° NNE 04:00:20 22° NNE 04:00:20 22° NNE visible
22 Feb 4.1 05:40:57 10° NW 05:41:18 11° NW 05:41:18 11° NW visible
23 Feb 4.4 03:32:24 10° NNE 03:33:48 18° NE 03:33:48 18° NE visible
23 Feb 3.7 05:12:52 10° NNW 05:14:45 17° NW 05:14:45 17° NW visible
24 Feb 4.9 03:06:46 10° NE 03:07:16 12° NE 03:07:16 12° NE visible
24 Feb 3.4 04:45:47 10° N 04:48:14 25° NNW 04:48:14 25° NNW visible
25 Feb 3.4 04:19:06 10° N 04:21:41 30° N 04:21:41 30° N visible
26 Feb 3.7 03:52:44 10° NNE 03:55:09 28° NNE 03:55:09 28° NNE visible
26 Feb 3.9 05:34:37 10° NW 05:36:07 13° NW 05:36:07 13° NW visible
27 Feb 4.3 03:26:43 10° NNE 03:28:38 21° NE 03:28:38 21° NE visible
27 Feb 3.5 05:06:52 10° NNW 05:09:35 21° NW 05:09:35 21° NW visible
28 Feb 4.9 03:01:14 10° NE 03:02:06 13° NE 03:02:06 13° NE visible
28 Feb 3.1 04:39:54 10° N 04:43:03 32° NNW 04:43:03 32° NNW visible
